QPF
0.00 0.02 0.04 0.06 0.08 0.04 0.00 0.00 0.00 0.00 0.00 0.00 0.00 0.00 0.00 0.00 0.00 0.01 0.00 0.01 0.00 0.00 0.00 0.00 0.00 0.00 0.00 0.00 0.00 0.01 0.01 0.00 0.01 0.01 0.01 0.02 0.01 0.00 0.00 0.00 0.01 0.00 0.00 0.02 0.03 0.03 0.03 0.02 0.02
0.01 0.02 0.06 0.13 0.09 0.01 0.00 0.00 0.00 0.00 0.00 0.00 0.00 0.00 0.00 0.00 0.00 0.00 0.02 0.04 0.00 0.00 0.00 0.00 0.00 0.00 0.00 0.00 0.00 0.00 0.01 0.01 0.01 0.01 0.01 0.01 0.01 0.01 0.00 0.00 0.01 0.01 0.01 0.03 0.04 0.04 0.04 0.03 0.02
0.00 0.02 0.07 0.14 0.07 0.02 0.00 0.00 0.00 0.00 0.00 0.00 0.00 0.00 0.00 0.00 0.00 0.00 0.00 0.02 0.00 0.00 0.00 0.00 0.00 0.00 0.00 0.00 0.00 0.01 0.01 0.01 0.01 0.01 0.01 0.01 0.01 0.01 0.01 0.01 0.01 0.01 0.01 0.03 0.03 0.04 0.03 0.03 0.01
0.01 0.02 0.08 0.09 0.01 0.00 0.00 0.00 0.00 0.00 0.00 0.00 0.00 0.00 0.00 0.00 0.00 0.00 0.00 0.00 0.00 0.00 0.00 0.01 0.01 0.00 0.00 0.00 0.00 0.01 0.01 0.01 0.01 0.01 0.02 0.01 0.01 0.01 0.01 0.01 0.01 0.01 0.00 0.01 0.00 0.02 0.03 0.01 0.00
0.02 0.07 0.11 0.04 0.00 0.00 0.00 0.00 0.00 0.00 0.00 0.00 0.00 0.00 0.00 0.00 0.00 0.00 0.00 0.00 0.01 0.02 0.01 0.01 0.01 0.00 0.00 0.00 0.01 0.01 0.01 0.01 0.01 0.02 0.02 0.01 0.01 0.01 0.01 0.00 0.00 0.00 0.00 0.00 0.00 0.01 0.01 0.00 0.00
0.05 0.11 0.13 0.03 0.00 0.00 0.00 0.00 0.00 0.00 0.00 0.00 0.00 0.00 0.00 0.00 0.00 0.00 0.00 0.00 0.01 0.01 0.00 0.00 0.01 0.00 0.00 0.00 0.01 0.01 0.02 0.02 0.02 0.02 0.01 0.01 0.01 0.01 0.00 0.00 0.00 0.00 0.00 0.00 0.00 0.00 0.00 0.00 0.00
0.09 0.15 0.15 0.06 0.01 0.00 0.00 0.00 0.00 0.00 0.00 0.00 0.00 0.00 0.00 0.00 0.00 0.00 0.00 0.00 0.01 0.00 0.00 0.00 0.00 0.00 0.00 0.00 0.01 0.01 0.01 0.02 0.01 0.01 0.01 0.01 0.01 0.01 0.00 0.00 0.00 0.00 0.00 0.00 0.00 0.00 0.00 0.00 0.00
0.05 0.14 0.15 0.06 0.01 0.00 0.00 0.00 0.00 0.00 0.00 0.00 0.00 0.00 0.00 0.00 0.00 0.00 0.00 0.00 0.01 0.00 0.00 0.00 0.00 0.00 0.00 0.00 0.00 0.01 0.01 0.01 0.01 0.01 0.01 0.01 0.01 0.01 0.00 0.00 0.00 0.00 0.00 0.00 0.00 0.00 0.00 0.00 0.00
0.04 0.11 0.13 0.10 0.03 0.01 0.00 0.00 0.00 0.00 0.00 0.00 0.00 0.00 0.00 0.00 0.00 0.00 0.00 0.01 0.01 0.01 0.01 0.01 0.00 0.00 0.00 0.00 0.00 0.01 0.01 0.01 0.00 0.00 0.01 0.01 0.00 0.00 0.00 0.00 0.00 0.00 0.00 0.00 0.00 0.00 0.00 0.00 0.00
0.07 0.09 0.10 0.13 0.05 0.02 0.00 0.00 0.00 0.00 0.00 0.00 0.00 0.00 0.00 0.00 0.00 0.00 0.00 0.00 0.00 0.01 0.01 0.01 0.01 0.00 0.01 0.01 0.01 0.00 0.00 0.00 0.00 0.00 0.00 0.01 0.00 0.00 0.00 0.00 0.00 0.00 0.00 0.00 0.00 0.00 0.00 0.00 0.00
0.06 0.09 0.11 0.15 0.04 0.02 0.00 0.00 0.00 0.00 0.00 0.00 0.00 0.00 0.00 0.00 0.00 0.00 0.00 0.00 0.00 0.00 0.01 0.01 0.01 0.01 0.00 0.01 0.01 0.00 0.00 0.00 0.00 0.00 0.00 0.01 0.01 0.00 0.00 0.00 0.00 0.00 0.00 0.00 0.00 0.00 0.00 0.00 0.00
0.03 0.04 0.06 0.08 0.03 0.01 0.00 0.00 0.00 0.00 0.00 0.00 0.00 0.00 0.00 0.00 0.00 0.00 0.00 0.00 0.00 0.00 0.00 0.01 0.01 0.01 0.00 0.00 0.00 0.00 0.00 0.00 0.00 0.00 0.01 0.01 0.01 0.01 0.00 0.00 0.00 0.00 0.00 0.00 0.00 0.00 0.00 0.00 0.00
0.02 0.02 0.02 0.02 0.02 0.01 0.01 0.00 0.00 0.00 0.00 0.00 0.00 0.00 0.00 0.00 0.00 0.00 0.00 0.00 0.00 0.00 0.00 0.00 0.00 0.01 0.01 0.01 0.00 0.00 0.01 0.01 0.01 0.01 0.01 0.01 0.01 0.01 0.00 0.00 0.00 0.00 0.00 0.00 0.00 0.00 0.00 0.00 0.01
0.02 0.03 0.02 0.02 0.02 0.02 0.01 0.00 0.00 0.00 0.00 0.00 0.00 0.00 0.00 0.00 0.00 0.00 0.00 0.00 0.00 0.00 0.00 0.00 0.00 0.00 0.00 0.01 0.01 0.01 0.00 0.01 0.01 0.00 0.01 0.01 0.01 0.01 0.00 0.00 0.00 0.01 0.01 0.00 0.00 0.00 0.00 0.00 0.00
0.01 0.03 0.02 0.02 0.02 0.02 0.01 0.00 0.00 0.01 0.01 0.01 0.01 0.00 0.00 0.00 0.00 0.00 0.00 0.00 0.00 0.00 0.00 0.00 0.01 0.01 0.00 0.00 0.01 0.00 0.00 0.00 0.00 0.00 0.00 0.00 0.01 0.01 0.00 0.00 0.00 0.00 0.00 0.00 0.00 0.00 0.00 0.00 0.00
0.01 0.02 0.02 0.02 0.02 0.02 0.03 0.02 0.02 0.03 0.03 0.03 0.02 0.01 0.00 0.00 0.00 0.00 0.00 0.00 0.00 0.00 0.00 0.00 0.00 0.01 0.00 0.00 0.01 0.01 0.01 0.01 0.01 0.01 0.01 0.01 0.01 0.01 0.01 0.01 0.00 0.00 0.00 0.00 0.00 0.00 0.00 0.00 0.00
0.02 0.04 0.02 0.03 0.04 0.03 0.04 0.04 0.04 0.05 0.05 0.03 0.02 0.01 0.01 0.00 0.00 0.00 0.00 0.00 0.00 0.00 0.00 0.00 0.00 0.01 0.01 0.01 0.01 0.01 0.01 0.02 0.03 0.03 0.02 0.02 0.02 0.02 0.01 0.01 0.00 0.00 0.00 0.00 0.00 0.00 0.00 0.01 0.00
0.06 0.05 0.03 0.03 0.04 0.04 0.06 0.07 0.08 0.08 0.07 0.05 0.03 0.02 0.01 0.01 0.00 0.00 0.00 0.00 0.00 0.00 0.00 0.00 0.01 0.02 0.02 0.02 0.02 0.02 0.03 0.05 0.06 0.06 0.05 0.04 0.06 0.05 0.02 0.01 0.01 0.01 0.01 0.01 0.01 0.02 0.02 0.01 0.01
0.05 0.05 0.04 0.03 0.04 0.04 0.05 0.06 0.07 0.08 0.09 0.07 0.04 0.04 0.03 0.01 0.00 0.00 0.00 0.00 0.00 0.00 0.00 0.01 0.02 0.02 0.02 0.02 0.03 0.05 0.05 0.08 0.11 0.12 0.14 0.12 0.10 0.08 0.04 0.03 0.03 0.03 0.02 0.02 0.03 0.03 0.05 0.07 0.04
0.03 0.03 0.04 0.03 0.03 0.03 0.03 0.03 0.04 0.05 0.07 0.07 0.06 0.05 0.04 0.02 0.01 0.00 0.00 0.00 0.00 0.00 0.01 0.02 0.02 0.03 0.04 0.04 0.07 0.09 0.08 0.10 0.12 0.16 0.20 0.16 0.12 0.09 0.05 0.04 0.04 0.04 0.05 0.07 0.07 0.08 0.10 0.09 0.08
0.01 0.02 0.03 0.03 0.02 0.02 0.02 0.01 0.02 0.02 0.03 0.03 0.04 0.04 0.04 0.02 0.01 0.01 0.00 0.00 0.00 0.00 0.01 0.01 0.03 0.04 0.06 0.06 0.08 0.09 0.10 0.14 0.14 0.16 0.18 0.17 0.15 0.12 0.09 0.10 0.09 0.07 0.09 0.11 0.13 0.14 0.13 0.12 0.10
0.01 0.01 0.01 0.01 0.01 0.01 0.01 0.01 0.00 0.01 0.01 0.02 0.02 0.03 0.04 0.03 0.02 0.01 0.01 0.01 0.01 0.01 0.01 0.01 0.03 0.05 0.05 0.06 0.07 0.07 0.08 0.09 0.08 0.12 0.15 0.16 0.18 0.18 0.16 0.18 0.22 0.19 0.17 0.18 0.20 0.18 0.17 0.14 0.13
0.00 0.00 0.00 0.00 0.00 0.01 0.01 0.01 0.00 0.00 0.01 0.01 0.02 0.02 0.03 0.03 0.02 0.02 0.02 0.01 0.02 0.01 0.01 0.02 0.03 0.04 0.04 0.04 0.04 0.05 0.05 0.05 0.06 0.07 0.08 0.10 0.13 0.18 0.20 0.22 0.28 0.29 0.26 0.25 0.27 0.22 0.18 0.15 0.11
0.00 0.00 0.00 0.00 0.01 0.00 0.00 0.01 0.01 0.01 0.01 0.01 0.01 0.01 0.02 0.02 0.03 0.02 0.01 0.02 0.02 0.02 0.02 0.01 0.01 0.03 0.02 0.02 0.03 0.03 0.03 0.03 0.03 0.03 0.04 0.06 0.08 0.12 0.15 0.24 0.30 0.30 0.30 0.33 0.30 0.26 0.21 0.16 0.14
0.01 0.02 0.02 0.02 0.02 0.01 0.01 0.02 0.02 0.02 0.02 0.02 0.02 0.01 0.02 0.03 0.04 0.04 0.02 0.02 0.02 0.02 0.02 0.01 0.01 0.01 0.01 0.01 0.01 0.02 0.02 0.03 0.02 0.02 0.02 0.03 0.04 0.04 0.10 0.19 0.24 0.26 0.31 0.34 0.35 0.28 0.22 0.17 0.16
0.02 0.04 0.05 0.05 0.04 0.03 0.03 0.04 0.03 0.03 0.03 0.03 0.03 0.04 0.04 0.05 0.06 0.07 0.06 0.05 0.04 0.03 0.02 0.01 0.00 0.00 0.00 0.00 0.00 0.01 0.02 0.02 0.01 0.01 0.01 0.01 0.01 0.02 0.04 0.09 0.13 0.18 0.25 0.30 0.31 0.26 0.22 0.21 0.19
0.04 0.06 0.07 0.08 0.06 0.04 0.03 0.05 0.04 0.03 0.04 0.05 0.06 0.08 0.10 0.11 0.14 0.15 0.13 0.11 0.08 0.06 0.03 0.01 0.01 0.00 0.00 0.00 0.00 0.00 0.01 0.01 0.01 0.01 0.01 0.01 0.01 0.01 0.02 0.03 0.05 0.09 0.13 0.18 0.24 0.25 0.24 0.24 0.24
0.02 0.04 0.07 0.11 0.11 0.07 0.07 0.11 0.12 0.09 0.09 0.09 0.11 0.14 0.19 0.22 0.24 0.25 0.23 0.20 0.15 0.09 0.04 0.03 0.01 0.01 0.00 0.00 0.00 0.00 0.00 0.00 0.00 0.00 0.00 0.00 0.00 0.01 0.02 0.03 0.03 0.06 0.08 0.11 0.14 0.19 0.20 0.19 0.19
0.03 0.08 0.11 0.12 0.13 0.14 0.15 0.20 0.20 0.16 0.15 0.17 0.20 0.22 0.27 0.32 0.32 0.32 0.32 0.27 0.22 0.15 0.07 0.04 0.02 0.02 0.01 0.01 0.00 0.00 0.00 0.00 0.00 0.00 0.00 0.00 0.00 0.01 0.01 0.02 0.04 0.05 0.06 0.09 0.10 0.13 0.14 0.12 0.13
0.05 0.09 0.17 0.21 0.20 0.18 0.18 0.24 0.19 0.15 0.17 0.19 0.21 0.18 0.18 0.22 0.25 0.27 0.26 0.23 0.20 0.15 0.10 0.06 0.04 0.04 0.05 0.04 0.03 0.02 0.01 0.01 0.01 0.01 0.00 0.00 0.00 0.01 0.01 0.02 0.04 0.04 0.05 0.06 0.06 0.07 0.07 0.09 0.10
MSLP
1006.70 1007.71 1008.96 1010.25 1011.41 1012.28 1012.78 1012.90 1012.70 1012.31 1011.87 1011.52 1011.32 1011.29 1011.40 1011.57 1011.72 1011.77 1011.71 1011.56 1011.37 1011.21 1011.13 1011.19 1011.36 1011.62 1011.90 1012.13 1012.30 1012.37 1012.39 1012.38 1012.41 1012.52 1012.71 1012.98 1013.28 1013.56 1013.78 1013.90 1013.93 1013.88 1013.79 1013.68 1013.59 1013.52 1013.45 1013.38 1013.28
1007.00 1008.18 1009.51 1010.79 1011.84 1012.52 1012.78 1012.66 1012.24 1011.69 1011.16 1010.76 1010.57 1010.57 1010.72 1010.93 1011.10 1011.19 1011.16 1011.06 1010.94 1010.86 1010.88 1011.02 1011.27 1011.58 1011.89 1012.15 1012.33 1012.42 1012.47 1012.50 1012.58 1012.74 1012.96 1013.24 1013.52 1013.77 1013.94 1014.01 1014.00 1013.93 1013.84 1013.77 1013.71 1013.68 1013.64 1013.57 1013.47
1007.52 1008.82 1010.16 1011.35 1012.22 1012.66 1012.66 1012.28 1011.67 1010.99 1010.40 1010.02 1009.87 1009.94 1010.15 1010.41 1010.62 1010.73 1010.72 1010.65 1010.56 1010.54 1010.62 1010.83 1011.13 1011.48 1011.82 1012.10 1012.29 1012.41 1012.49 1012.57 1012.70 1012.89 1013.13 1013.41 1013.67 1013.87 1013.98 1014.01 1013.97 1013.90 1013.83 1013.79 1013.79 1013.81 1013.81 1013.77 1013.68
1008.26 1009.62 1010.92 1011.96 1012.60 1012.77 1012.50 1011.89 1011.11 1010.35 1009.76 1009.42 1009.35 1009.51 1009.79 1010.10 1010.33 1010.44 1010.44 1010.37 1010.30 1010.31 1010.43 1010.67 1011.01 1011.38 1011.73 1012.02 1012.22 1012.36 1012.46 1012.58 1012.74 1012.96 1013.22 1013.49 1013.72 1013.88 1013.96 1013.95 1013.90 1013.83 1013.80 1013.81 1013.86 1013.93 1013.99 1013.98 1013.91
1009.16 1010.53 1011.72 1012.57 1012.96 1012.87 1012.35 1011.55 1010.66 1009.87 1009.30 1009.05 1009.08 1009.33 1009.68 1010.02 1010.26 1010.36 1010.33 1010.25 1010.18 1010.20 1010.34 1010.60 1010.95 1011.33 1011.68 1011.96 1012.16 1012.29 1012.41 1012.54 1012.72 1012.96 1013.23 1013.50 1013.72 1013.86 1013.91 1013.89 1013.84 1013.80 1013.79 1013.85 1013.95 1014.07 1014.17 1014.20 1014.15
1010.11 1011.42 1012.47 1013.11 1013.26 1012.92 1012.20 1011.27 1010.33 1009.55 1009.07 1008.91 1009.05 1009.38 1009.78 1010.14 1010.36 1010.42 1010.37 1010.27 1010.19 1010.22 1010.37 1010.65 1011.00 1011.37 1011.71 1011.96 1012.14 1012.26 1012.36 1012.50 1012.69 1012.94 1013.22 1013.49 1013.71 1013.85 1013.90 1013.89 1013.85 1013.83 1013.85 1013.94 1014.08 1014.23 1014.35 1014.40 1014.38
1010.94 1012.15 1013.03 1013.45 1013.37 1012.84 1011.99 1011.00 1010.06 1009.36 1008.98 1008.95 1009.18 1009.58 1010.01 1010.35 1010.54 1010.56 1010.48 1010.35 1010.28 1010.31 1010.49 1010.78 1011.14 1011.51 1011.82 1012.04 1012.18 1012.27 1012.36 1012.48 1012.67 1012.93 1013.22 1013.50 1013.74 1013.90 1013.97 1013.97 1013.95 1013.94 1013.98 1014.08 1014.22 1014.38 1014.50 1014.57 1014.56
1011.53 1012.59 1013.28 1013.50 1013.23 1012.56 1011.64 1010.65 1009.78 1009.19 1008.94 1009.02 1009.34 1009.79 1010.22 1010.54 1010.68 1010.66 1010.55 1010.42 1010.35 1010.42 1010.62 1010.94 1011.32 1011.68 1011.97 1012.17 1012.28 1012.34 1012.40 1012.51 1012.69 1012.95 1013.26 1013.56 1013.82 1014.00 1014.10 1014.12 1014.11 1014.11 1014.15 1014.24 1014.36 1014.50 1014.61 1014.67 1014.67
1011.81 1012.69 1013.18 1013.20 1012.79 1012.04 1011.10 1010.17 1009.41 1008.95 1008.84 1009.02 1009.41 1009.88 1010.30 1010.58 1010.68 1010.63 1010.50 1010.38 1010.34 1010.45 1010.70 1011.06 1011.46 1011.83 1012.11 1012.29 1012.38 1012.41 1012.46 1012.56 1012.74 1013.01 1013.33 1013.66 1013.94 1014.15 1014.26 1014.31 1014.31 1014.30 1014.32 1014.38 1014.47 1014.58 1014.67 1014.72 1014.73
1011.80 1012.48 1012.77 1012.62 1012.10 1011.30 1010.40 1009.56 1008.93 1008.61 1008.62 1008.89 1009.32 1009.78 1010.17 1010.40 1010.47 1010.39 1010.26 1010.17 1010.18 1010.34 1010.65 1011.05 1011.48 1011.86 1012.15 1012.33 1012.41 1012.45 1012.49 1012.59 1012.79 1013.07 1013.41 1013.75 1014.06 1014.29 1014.43 1014.48 1014.48 1014.47 1014.46 1014.49 1014.54 1014.61 1014.68 1014.73 1014.76
1011.58 1012.06 1012.16 1011.88 1011.28 1010.48 1009.64 1008.90 1008.40 1008.20 1008.29 1008.61 1009.05 1009.48 1009.82 1010.00 1010.03 1009.94 1009.83 1009.77 1009.84 1010.06 1010.41 1010.85 1011.31 1011.72 1012.02 1012.22 1012.32 1012.38 1012.45 1012.58 1012.79 1013.09 1013.45 1013.81 1014.13 1014.37 1014.52 1014.59 1014.59 1014.57 1014.54 1014.54 1014.56 1014.61 1014.67 1014.73 1014.78
1011.32 1011.61 1011.55 1011.16 1010.51 1009.73 1008.96 1008.32 1007.92 1007.80 1007.94 1008.25 1008.65 1009.03 1009.30 1009.42 1009.42 1009.33 1009.24 1009.22 1009.34 1009.60 1009.99 1010.46 1010.94 1011.37 1011.70 1011.92 1012.07 1012.17 1012.29 1012.46 1012.71 1013.04 1013.41 1013.77 1014.10 1014.35 1014.51 1014.59 1014.59 1014.57 1014.55 1014.54 1014.56 1014.60 1014.67 1014.75 1014.84
1011.16 1011.29 1011.10 1010.63 1009.97 1009.23 1008.52 1007.97 1007.63 1007.54 1007.66 1007.92 1008.23 1008.51 1008.69 1008.75 1008.71 1008.62 1008.55 1008.58 1008.73 1009.02 1009.43 1009.91 1010.40 1010.84 1011.19 1011.45 1011.65 1011.82 1012.00 1012.23 1012.52 1012.88 1013.25 1013.62 1013.95 1014.20 1014.37 1014.46 1014.49 1014.49 1014.49 1014.51 1014.55 1014.63 1014.72 1014.84 1014.97
1011.22 1011.22 1010.95 1010.45 1009.80 1009.11 1008.47 1007.96 1007.64 1007.52 1007.57 1007.71 1007.89 1008.03 1008.10 1008.09 1008.01 1007.91 1007.87 1007.92 1008.09 1008.39 1008.80 1009.27 1009.74 1010.18 1010.55 1010.86 1011.12 1011.36 1011.62 1011.91 1012.25 1012.62 1013.00 1013.36 1013.67 1013.92 1014.09 1014.20 1014.28 1014.33 1014.39 1014.46 1014.56 1014.69 1014.84 1015.01 1015.18
1011.51 1011.43 1011.13 1010.64 1010.04 1009.41 1008.82 1008.34 1008.00 1007.80 1007.71 1007.69 1007.69 1007.67 1007.60 1007.50 1007.38 1007.28 1007.24 1007.31 1007.50 1007.80 1008.18 1008.62 1009.07 1009.50 1009.88 1010.23 1010.55 1010.87 1011.20 1011.54 1011.91 1012.29 1012.67 1013.00 1013.29 1013.53 1013.72 1013.86 1013.99 1014.12 1014.26 1014.42 1014.60 1014.80 1015.01 1015.23 1015.45
1011.96 1011.85 1011.56 1011.12 1010.60 1010.06 1009.53 1009.06 1008.67 1008.35 1008.09 1007.86 1007.65 1007.43 1007.22 1007.01 1006.84 1006.73 1006.71 1006.80 1006.99 1007.28 1007.64 1008.05 1008.47 1008.88 1009.28 1009.67 1010.05 1010.43 1010.81 1011.20 1011.59 1011.96 1012.31 1012.61 1012.86 1013.09 1013.28 1013.47 1013.66 1013.87 1014.11 1014.37 1014.65 1014.93 1015.21 1015.48 1015.74
1012.45 1012.35 1012.11 1011.77 1011.37 1010.93 1010.47 1010.01 1009.55 1009.09 1008.63 1008.17 1007.72 1007.30 1006.93 1006.61 1006.39 1006.28 1006.28 1006.38 1006.59 1006.88 1007.22 1007.60 1008.00 1008.41 1008.82 1009.24 1009.67 1010.10 1010.53 1010.94 1011.33 1011.67 1011.97 1012.22 1012.44 1012.63 1012.83 1013.06 1013.32 1013.62 1013.96 1014.32 1014.69 1015.05 1015.40 1015.71 1016.00
1012.84 1012.77 1012.64 1012.44 1012.18 1011.87 1011.49 1011.04 1010.51 1009.90 1009.23 1008.54 1007.86 1007.23 1006.69 1006.27 1006.00 1005.88 1005.90 1006.04 1006.28 1006.58 1006.93 1007.30 1007.70 1008.11 1008.54 1008.99 1009.46 1009.93 1010.38 1010.79 1011.16 1011.46 1011.70 1011.89 1012.05 1012.22 1012.42 1012.67 1012.99 1013.37 1013.80 1014.24 1014.69 1015.12 1015.51 1015.86 1016.17
1013.02 1013.03 1013.02 1012.98 1012.90 1012.74 1012.45 1012.02 1011.43 1010.69 1009.83 1008.91 1008.00 1007.17 1006.48 1005.96 1005.65 1005.53 1005.58 1005.76 1006.03 1006.37 1006.74 1007.13 1007.54 1007.97 1008.43 1008.91 1009.40 1009.89 1010.35 1010.75 1011.08 1011.33 1011.50 1011.62 1011.74 1011.87 1012.06 1012.34 1012.70 1013.13 1013.62 1014.13 1014.63 1015.10 1015.52 1015.90 1016.23
1012.98 1013.08 1013.22 1013.37 1013.47 1013.46 1013.29 1012.90 1012.26 1011.40 1010.37 1009.26 1008.15 1007.13 1006.30 1005.69 1005.33 1005.21 1005.29 1005.52 1005.84 1006.22 1006.63 1007.05 1007.49 1007.95 1008.44 1008.94 1009.46 1009.96 1010.41 1010.79 1011.07 1011.26 1011.37 1011.44 1011.50 1011.61 1011.79 1012.07 1012.45 1012.91 1013.43 1013.96 1014.48 1014.97 1015.41 1015.80 1016.15
1012.80 1013.00 1013.29 1013.62 1013.91 1014.06 1014.00 1013.65 1012.99 1012.04 1010.88 1009.60 1008.32 1007.15 1006.19 1005.50 1005.11 1004.98 1005.08 1005.35 1005.71 1006.14 1006.59 1007.04 1007.51 1008.00 1008.51 1009.03 1009.56 1010.06 1010.50 1010.85 1011.09 1011.23 1011.29 1011.31 1011.34 1011.42 1011.59 1011.87 1012.25 1012.72 1013.23 1013.76 1014.26 1014.74 1015.16 1015.56 1015.92
1012.61 1012.92 1013.35 1013.84 1014.29 1014.59 1014.63 1014.33 1013.67 1012.66 1011.40 1010.00 1008.59 1007.30 1006.25 1005.48 1005.04 1004.90 1005.00 1005.28 1005.68 1006.12 1006.59 1007.07 1007.56 1008.06 1008.58 1009.11 1009.63 1010.12 1010.53 1010.86 1011.07 1011.18 1011.21 1011.21 1011.22 1011.30 1011.46 1011.73 1012.10 1012.55 1013.03 1013.52 1013.99 1014.42 1014.82 1015.20 1015.57
1012.58 1012.97 1013.52 1014.14 1014.72 1015.13 1015.26 1015.00 1014.35 1013.32 1012.00 1010.52 1009.03 1007.66 1006.53 1005.70 1005.21 1005.04 1005.12 1005.38 1005.76 1006.20 1006.67 1007.14 1007.61 1008.10 1008.60 1009.11 1009.62 1010.08 1010.48 1010.78 1010.97 1011.07 1011.10 1011.11 1011.13 1011.21 1011.38 1011.65 1012.00 1012.41 1012.85 1013.28 1013.69 1014.06 1014.41 1014.76 1015.12
1012.81 1013.26 1013.89 1014.60 1015.26 1015.75 1015.92 1015.71 1015.07 1014.03 1012.70 1011.19 1009.66 1008.25 1007.07 1006.20 1005.66 1005.44 1005.47 1005.68 1006.01 1006.40 1006.82 1007.24 1007.67 1008.11 1008.57 1009.04 1009.51 1009.94 1010.31 1010.59 1010.78 1010.89 1010.94 1010.97 1011.02 1011.13 1011.32 1011.59 1011.93 1012.31 1012.69 1013.05 1013.39 1013.69 1013.98 1014.28 1014.63
1013.34 1013.82 1014.48 1015.22 1015.91 1016.42 1016.62 1016.42 1015.81 1014.79 1013.47 1011.98 1010.46 1009.05 1007.86 1006.96 1006.38 1006.09 1006.05 1006.18 1006.43 1006.73 1007.05 1007.39 1007.74 1008.11 1008.50 1008.90 1009.31 1009.69 1010.03 1010.30 1010.50 1010.63 1010.71 1010.79 1010.89 1011.04 1011.26 1011.54 1011.87 1012.22 1012.55 1012.85 1013.11 1013.35 1013.57 1013.83 1014.13
1014.10 1014.57 1015.21 1015.92 1016.59 1017.08 1017.27 1017.08 1016.48 1015.51 1014.24 1012.81 1011.35 1009.98 1008.81 1007.90 1007.29 1006.94 1006.81 1006.84 1006.97 1007.16 1007.37 1007.60 1007.84 1008.11 1008.40 1008.72 1009.06 1009.39 1009.69 1009.95 1010.15 1010.31 1010.43 1010.56 1010.72 1010.92 1011.17 1011.47 1011.80 1012.12 1012.42 1012.67 1012.88 1013.05 1013.22 1013.42 1013.68
1014.99 1015.40 1015.97 1016.61 1017.20 1017.63 1017.78 1017.58 1017.01 1016.09 1014.91 1013.57 1012.20 1010.91 1009.80 1008.91 1008.28 1007.88 1007.67 1007.59 1007.60 1007.66 1007.75 1007.85 1007.97 1008.13 1008.32 1008.55 1008.81 1009.08 1009.34 1009.58 1009.78 1009.96 1010.13 1010.31 1010.51 1010.76 1011.04 1011.37 1011.70 1012.01 1012.29 1012.51 1012.68 1012.81 1012.94 1013.09 1013.31
1015.85 1016.18 1016.64 1017.17 1017.65 1017.98 1018.06 1017.84 1017.30 1016.45 1015.37 1014.15 1012.91 1011.73 1010.69 1009.86 1009.23 1008.79 1008.51 1008.34 1008.25 1008.19 1008.15 1008.14 1008.15 1008.20 1008.29 1008.44 1008.62 1008.83 1009.04 1009.26 1009.45 1009.64 1009.83 1010.04 1010.28 1010.56 1010.87 1011.21 1011.55 1011.87 1012.14 1012.35 1012.51 1012.63 1012.73 1012.86 1013.03
1016.57 1016.80 1017.14 1017.53 1017.87 1018.08 1018.09 1017.84 1017.32 1016.54 1015.57 1014.49 1013.39 1012.34 1011.41 1010.63 1010.03 1009.58 1009.26 1009.02 1008.84 1008.69 1008.55 1008.45 1008.37 1008.33 1008.35 1008.42 1008.53 1008.68 1008.85 1009.03 1009.21 1009.39 1009.59 1009.80 1010.05 1010.34 1010.66 1011.01 1011.35 1011.68 1011.96 1012.18 1012.35 1012.48 1012.59 1012.71 1012.87
1017.13 1017.25 1017.46 1017.70 1017.91 1018.00 1017.93 1017.65 1017.14 1016.44 1015.57 1014.63 1013.66 1012.74 1011.92 1011.22 1010.66 1010.21 1009.87 1009.59 1009.35 1009.14 1008.94 1008.77 1008.63 1008.54 1008.50 1008.51 1008.57 1008.67 1008.79 1008.93 1009.08 1009.24 1009.41 1009.61 1009.85 1010.12 1010.43 1010.76 1011.11 1011.43 1011.73 1011.98 1012.18 1012.35 1012.49 1012.62 1012.78
Thickness
5840 5840 5836 5822 5795 5773 5775 5789 5800 5805 5809 5817 5820 5812 5798 5791 5784 5778 5801 5808 5806 5802 5799 5796 5794 5791 5788 5786 5783 5781 5778 5776 5773 5771 5768 5765 5763 5761 5759 5758 5757 5756 5756 5756 5756 5757 5759 5762 5764
5841 5839 5826 5808 5778 5759 5772 5793 5800 5810 5816 5820 5818 5812 5801 5796 5805 5802 5803 5806 5806 5802 5799 5796 5794 5791 5788 5786 5783 5781 5778 5775 5773 5770 5767 5764 5762 5759 5758 5756 5755 5754 5753 5752 5752 5753 5754 5757 5760
5840 5836 5814 5793 5777 5768 5780 5797 5807 5820 5826 5822 5813 5811 5803 5798 5807 5805 5807 5807 5804 5801 5798 5796 5794 5791 5788 5786 5783 5780 5778 5775 5772 5770 5767 5764 5761 5758 5756 5754 5753 5752 5751 5750 5749 5750 5751 5754 5757
5834 5821 5806 5785 5781 5792 5800 5807 5817 5818 5820 5822 5813 5801 5805 5814 5814 5812 5810 5808 5803 5800 5798 5796 5794 5791 5789 5786 5783 5780 5778 5775 5772 5769 5766 5763 5760 5757 5755 5753 5752 5750 5749 5748 5748 5748 5749 5751 5754
5828 5806 5787 5776 5786 5803 5813 5819 5823 5816 5814 5815 5810 5794 5795 5813 5819 5814 5809 5807 5803 5800 5798 5796 5794 5791 5789 5786 5783 5780 5777 5774 5772 5769 5766 5763 5759 5756 5754 5752 5750 5749 5748 5748 5747 5748 5748 5749 5751
5808 5795 5773 5768 5785 5804 5816 5825 5823 5816 5813 5813 5807 5794 5794 5811 5813 5810 5809 5807 5805 5801 5798 5796 5793 5791 5789 5786 5783 5780 5777 5774 5771 5768 5765 5762 5759 5756 5753 5750 5749 5748 5747 5747 5747 5748 5748 5749 5750
5800 5786 5773 5775 5781 5798 5815 5826 5821 5815 5811 5813 5814 5794 5795 5806 5812 5813 5810 5807 5804 5802 5799 5796 5794 5791 5789 5786 5783 5780 5777 5774 5771 5768 5764 5761 5758 5755 5752 5749 5748 5747 5747 5747 5747 5747 5747 5748 5749
5810 5787 5773 5773 5780 5794 5820 5828 5828 5823 5818 5827 5822 5799 5794 5807 5815 5813 5809 5805 5803 5800 5798 5796 5794 5792 5789 5786 5783 5780 5777 5773 5770 5767 5764 5760 5757 5754 5751 5749 5747 5746 5746 5746 5746 5746 5746 5747 5748
5813 5777 5764 5771 5779 5794 5818 5822 5830 5837 5828 5826 5827 5820 5819 5820 5816 5809 5803 5799 5798 5797 5797 5796 5794 5792 5789 5786 5783 5780 5776 5773 5769 5766 5763 5760 5756 5753 5751 5748 5746 5745 5744 5744 5744 5744 5745 5746 5747
5798 5771 5775 5786 5792 5800 5813 5820 5826 5822 5815 5814 5818 5822 5824 5819 5814 5807 5801 5797 5796 5795 5796 5796 5794 5792 5789 5786 5783 5779 5776 5772 5768 5765 5761 5758 5755 5752 5749 5747 5746 5744 5743 5742 5742 5742 5743 5744 5745
5799 5785 5791 5798 5807 5811 5812 5820 5829 5815 5804 5811 5813 5815 5817 5815 5812 5809 5807 5805 5803 5801 5798 5797 5795 5792 5789 5786 5782 5778 5775 5771 5768 5764 5760 5757 5753 5750 5748 5746 5745 5743 5742 5741 5740 5740 5740 5741 5741
5801 5801 5804 5806 5814 5815 5815 5820 5822 5819 5818 5826 5828 5826 5820 5814 5812 5811 5809 5809 5807 5803 5801 5799 5796 5792 5789 5786 5782 5777 5774 5771 5767 5763 5760 5756 5752 5749 5747 5745 5744 5742 5741 5739 5738 5738 5738 5738 5737
5798 5801 5810 5815 5816 5818 5819 5817 5818 5821 5829 5829 5827 5823 5819 5817 5817 5817 5817 5814 5810 5806 5803 5801 5798 5793 5789 5785 5781 5777 5774 5771 5768 5764 5760 5756 5753 5749 5747 5745 5743 5742 5740 5739 5737 5737 5737 5737 5736
5799 5802 5805 5811 5811 5812 5810 5813 5814 5815 5826 5822 5818 5817 5818 5818 5818 5816 5815 5812 5810 5808 5806 5803 5799 5795 5790 5786 5782 5778 5775 5771 5768 5764 5761 5757 5754 5750 5747 5744 5742 5741 5740 5738 5736 5736 5736 5735 5733
5802 5793 5794 5800 5803 5805 5804 5796 5803 5814 5819 5813 5812 5814 5815 5818 5819 5818 5819 5817 5815 5811 5809 5805 5801 5796 5791 5786 5783 5779 5775 5772 5769 5766 5763 5759 5755 5752 5748 5744 5741 5740 5738 5736 5734 5733 5733 5731 5730
5786 5775 5767 5783 5790 5796 5787 5773 5799 5808 5808 5804 5806 5807 5809 5813 5817 5821 5822 5821 5818 5813 5809 5806 5803 5797 5792 5787 5783 5780 5776 5772 5770 5767 5764 5761 5757 5753 5749 5745 5742 5740 5737 5735 5732 5730 5728 5726 5725
5758 5748 5752 5765 5778 5780 5775 5769 5791 5799 5798 5798 5801 5802 5804 5807 5813 5818 5821 5821 5818 5814 5810 5805 5803 5797 5792 5788 5784 5780 5776 5772 5769 5766 5764 5761 5757 5754 5750 5746 5743 5740 5736 5733 5731 5727 5724 5720 5719
5736 5738 5743 5748 5762 5765 5759 5762 5779 5789 5788 5789 5793 5795 5796 5801 5809 5817 5818 5819 5817 5814 5810 5804 5800 5795 5790 5785 5780 5776 5772 5769 5767 5765 5762 5759 5756 5753 5750 5746 5743 5739 5734 5730 5728 5723 5721 5718 5716
5743 5737 5733 5742 5755 5752 5748 5752 5766 5777 5778 5779 5783 5786 5789 5796 5808 5814 5815 5815 5812 5808 5803 5799 5794 5790 5785 5779 5773 5768 5765 5764 5762 5761 5759 5757 5754 5751 5748 5744 5741 5737 5733 5728 5725 5720 5716 5712 5711
5738 5728 5725 5734 5744 5742 5736 5743 5759 5767 5769 5773 5776 5778 5784 5789 5798 5803 5806 5806 5805 5802 5797 5794 5789 5785 5782 5778 5773 5769 5765 5760 5758 5756 5754 5753 5751 5749 5746 5742 5738 5735 5730 5725 5722 5718 5711 5709 5708
5728 5721 5718 5719 5726 5729 5721 5723 5740 5754 5760 5765 5772 5776 5780 5784 5789 5793 5795 5796 5796 5793 5791 5789 5784 5780 5776 5773 5767 5761 5756 5753 5749 5748 5748 5748 5747 5745 5742 5739 5736 5732 5728 5723 5720 5716 5710 5704 5703
5713 5725 5721 5715 5702 5693 5701 5685 5717 5728 5736 5746 5754 5762 5771 5778 5782 5783 5785 5785 5785 5785 5785 5782 5777 5772 5769 5767 5761 5756 5750 5745 5746 5746 5745 5744 5742 5740 5738 5735 5732 5729 5725 5721 5717 5714 5710 5705 5698
5716 5722 5714 5706 5693 5682 5686 5677 5693 5707 5711 5724 5738 5751 5761 5770 5774 5775 5776 5778 5777 5776 5775 5773 5769 5764 5762 5760 5757 5753 5748 5745 5744 5742 5740 5738 5737 5735 5733 5730 5727 5724 5721 5718 5714 5710 5707 5705 5700
5714 5704 5695 5683 5672 5661 5674 5669 5671 5680 5690 5706 5723 5737 5750 5758 5764 5767 5769 5769 5766 5765 5764 5764 5760 5757 5755 5753 5751 5748 5745 5742 5738 5736 5733 5732 5730 5728 5727 5724 5722 5719 5717 5714 5711 5707 5704 5702 5699
5694 5672 5653 5650 5646 5651 5673 5667 5661 5675 5686 5696 5706 5720 5735 5744 5748 5750 5754 5755 5753 5753 5752 5751 5751 5748 5748 5747 5745 5744 5742 5739 5735 5733 5730 5727 5724 5723 5721 5719 5717 5714 5712 5710 5707 5703 5700 5697 5695
5674 5664 5644 5633 5634 5646 5665 5660 5660 5675 5683 5693 5701 5710 5721 5727 5731 5735 5740 5742 5743 5742 5742 5742 5743 5742 5741 5741 5740 5740 5738 5735 5732 5730 5728 5725 5722 5721 5719 5716 5712 5710 5707 5705 5702 5698 5696 5693 5690
5655 5649 5651 5639 5638 5636 5647 5657 5663 5672 5677 5684 5690 5697 5703 5709 5714 5718 5724 5728 5732 5733 5734 5735 5735 5735 5736 5736 5735 5734 5733 5731 5728 5726 5724 5721 5719 5717 5714 5711 5707 5705 5702 5700 5697 5693 5691 5689 5686
5644 5639 5630 5625 5622 5622 5634 5637 5636 5649 5658 5670 5677 5683 5690 5697 5702 5705 5708 5714 5720 5724 5727 5729 5732 5731 5731 5731 5730 5730 5729 5727 5725 5722 5718 5716 5714 5712 5708 5705 5702 5699 5697 5694 5691 5688 5686 5683 5682
5621 5620 5617 5616 5619 5617 5616 5623 5636 5639 5649 5657 5666 5674 5682 5689 5694 5697 5701 5706 5711 5717 5719 5723 5726 5726 5726 5725 5724 5723 5722 5721 5718 5715 5713 5711 5709 5706 5703 5700 5696 5694 5692 5689 5686 5683 5681 5679 5678
5613 5609 5608 5604 5607 5612 5612 5615 5635 5638 5646 5653 5661 5671 5681 5688 5692 5693 5697 5703 5708 5712 5715 5717 5719 5720 5720 5719 5718 5717 5715 5713 5710 5708 5707 5705 5702 5700 5698 5695 5692 5689 5687 5685 5682 5679 5678 5676 5674